Location: Aranbee
(34.0885°N, 118.2342°W)
Time: 05:11:44
(UTC+00:00)

deb Explorer IX - Pass Details

Date: 02 December 2020
Orbit: 536 x 1104 km, 38.8° (Epoch: 17 January)

Event Time Altitude Azimuth Distance (km) Brightness Sun altitude
Rises 01:53:37 0° 282° (WNW) 3,537 ? -14.3°
Reaches altitude 10° 01:56:28 10° 287° (WNW) 2,499 ? -14.9°
Maximum altitude 02:02:12 53° 4° (N) 932 ? -16.0°
Enters shadow 02:04:41 28° 68° (ENE) 1,330 ? -16.5°
